FW2259 Weather Reports


Display with metric or nautical units.
time (UTC)temp
F
wind
direction
speed
MPH
gust
MPH
rain 1hr
in
rain 24hr
in
rain mn
in
humidity
%
barometer
mb
20260507080103 61 180 2.0 4.0 0.01 0.13 0.08 81 1014.3
20260507074615 61 107 0.0 5.0 0.01 0.13 0.08 84 1014.3
20260507073058 59 80 1.0 5.0 0.01 0.13 0.08 86 1014.3
20260507071556 58 221 0.0 0.0 0.00 0.13 0.07 91 1014.3
20260507070106 56 128 0.0 0.0 0.00 0.13 0.07 92 1014.2
20260507064559 56 128 0.0 0.0 0.00 0.13 0.07 94 1014.2
20260507063057 55 128 0.0 0.0 0.00 0.13 0.07 96 1014.2
20260507061551 54 53 0.0 2.0 0.00 0.13 0.07 96 1014.1
20260507060049 53 343 0.0 4.0 0.00 0.13 0.07 97 1013.9
20260507054553 52 177 0.0 0.0 0.00 0.13 0.07 97 1014.0
20260507053048 52 177 0.0 0.0 0.00 0.13 0.07 97 1013.7
20260507051547 51 177 0.0 0.0 0.00 0.13 0.07 97 1013.7
20260507050046 51 177 0.0 0.0 0.00 0.13 0.07 97 1013.4
20260507044545 51 177 0.0 0.0 0.00 0.13 0.07 96 1013.4
20260507043044 51 177 0.0 0.0 0.00 0.13 0.07 97 1013.1
20260507041544 50 177 0.0 0.0 0.00 0.13 0.07 96 1012.9
20260507040041 51 173 0.0 0.0 0.00 0.13 0.07 96 1012.9
20260507034542 50 173 0.0 0.0 0.00 0.13 0.07 96 1012.8
20260507033044 51 173 0.0 0.0 0.00 0.13 0.07 96 1012.9
20260507031539 51 173 0.0 0.0 0.00 0.13 0.07 96 1012.7
20260507030041 51 291 0.0 0.0 0.00 0.13 0.07 95 1012.8
20260507024538 51 251 0.0 0.0 0.00 0.13 0.07 95 1012.7
20260507023035 51 251 0.0 0.0 0.00 0.13 0.07 95 1012.6
20260507021534 51 251 0.0 0.0 0.00 0.13 0.07 95 1012.6
20260507020041 52 251 0.0 0.0 0.00 0.13 0.07 95 1012.6
20260507014532 52 251 0.0 1.0 0.00 0.13 0.07 95 1012.7
20260507013046 52 251 0.0 2.0 0.00 0.13 0.07 95 1012.7
20260507011531 52 250 0.0 0.0 0.00 0.13 0.07 94 1012.6
20260507010035 53 250 0.0 0.0 0.00 0.13 0.07 94 1012.6
20260507004528 53 250 0.0 5.0 0.00 0.13 0.07 94 1012.7
20260507003028 53 299 0.0 2.0 0.00 0.13 0.07 94 1012.7
20260507001530 52 300 0.0 4.0 0.00 0.13 0.07 94 1012.7
20260507000026 52 309 1.0 5.0 0.00 0.13 0.07 94 1012.8
20260506234531 53 246 1.0 5.0 0.04 0.13 0.07 94 1012.8
20260506233023 53 196 0.0 2.0 0.06 0.13 0.07 94 1013.0
20260506231526 54 355 0.0 1.0 0.07 0.13 0.07 93 1012.8
20260506230021 54 360 0.0 4.0 0.07 0.13 0.07 92 1012.9
20260506224517 55 355 0.0 2.0 0.03 0.09 0.03 91 1013.3
20260506223012 55 298 1.0 6.0 0.01 0.06 0.01 87 1013.0
20260506221510 56 265 3.0 9.0 0.00 0.06 0.00 86 1012.9
20260506220015 56 239 3.0 6.0 0.00 0.06 0.06 86 1012.7
20260506214509 56 209 0.0 5.0 0.00 0.06 0.06 87 1012.6
20260506213006 56 223 0.0 6.0 0.01 0.06 0.06 87 1012.6
20260506211508 56 196 0.0 6.0 0.01 0.06 0.06 90 1012.7
20260506210011 56 194 0.0 2.0 0.01 0.06 0.06 90 1012.7
20260506204506 57 184 0.0 4.0 0.01 0.06 0.06 86 1012.4
20260506203005 58 257 0.0 4.0 0.00 0.05 0.05 85 1012.3
20260506201505 58 130 3.0 9.0 0.00 0.05 0.05 89 1012.2
20260506200007 58 242 0.0 4.0 0.00 0.05 0.05 90 1012.2
20260506194503 58 315 0.0 0.0 0.00 0.05 0.05 91 1011.9
20260506193003 58 309 0.0 0.0 0.00 0.05 0.05 90 1011.8
20260506191502 58 309 0.0 2.0 0.00 0.05 0.05 89 1011.6
20260506190001 59 302 1.0 6.0 0.00 0.05 0.05 88 1011.6
20260506184501 59 197 0.0 2.0 0.00 0.05 0.05 86 1011.4
20260506183000 59 197 0.0 0.0 0.00 0.05 0.05 86 1011.1
20260506181600 61 197 0.0 5.0 0.00 0.05 0.05 81 1011.0
20260506181501 61 197 0.0 5.0 0.00 0.05 0.05 81 1011.0
20260506180059 60 140 1.0 4.0 0.00 0.05 0.05 83 1010.7
20260506174559 61 331 0.0 2.0 0.00 0.05 0.05 86 1010.9
20260506173111 61 331 0.0 1.0 0.00 0.05 0.05 85 1010.9
20260506171607 62 331 0.0 4.0 0.00 0.05 0.05 84 1010.8
20260506164612 62 323 0.0 5.0 0.00 0.05 0.05 86 1011.0
20260506163102 61 327 0.0 4.0 0.00 0.05 0.05 86 1011.0
20260506161553 62 302 0.0 4.0 0.00 0.05 0.05 85 1011.2
20260506160104 63 331 2.0 5.0 0.00 0.05 0.05 86 1011.3
20260506154552 61 312 1.0 7.0 0.00 0.05 0.05 88 1011.6
20260506153045 60 298 1.0 6.0 0.00 0.05 0.05 90 1011.7
20260506151543 60 292 1.0 3.0 0.00 0.05 0.05 90 1011.7
20260506150041 60 318 2.0 6.0 0.00 0.05 0.05 91 1011.9
20260506144543 59 276 1.0 6.0 0.01 0.05 0.05 92 1011.9
20260506143039 59 346 0.0 5.0 0.01 0.05 0.05 92 1012.0
20260506140039 59 265 1.0 4.0 0.01 0.05 0.05 92 1012.1
20260506134536 59 242 1.0 7.0 0.00 0.04 0.04 90 1012.3
20260506133034 60 337 1.0 6.0 0.00 0.04 0.04 92 1012.2
20260506131538 60 5 0.0 2.0 0.00 0.04 0.04 91 1012.3
20260506130031 60 310 1.0 4.0 0.00 0.04 0.04 91 1012.3
20260506124534 59 313 0.0 2.0 0.00 0.04 0.04 91 1012.3
20260506123038 59 311 0.0 4.0 0.00 0.04 0.04 90 1012.5
20260506121527 60 257 1.0 6.0 0.01 0.04 0.04 90 1012.5
20260506120036 59 288 1.0 5.0 0.01 0.04 0.04 92 1012.6
20260506114527 58 313 1.0 4.0 0.01 0.04 0.04 92 1012.6
20260506113026 58 329 0.0 2.0 0.01 0.04 0.04 92 1012.6
20260506111524 58 278 1.0 4.0 0.01 0.03 0.03 91 1012.7
20260506110026 59 232 0.0 4.0 0.01 0.03 0.03 92 1012.8
20260506104522 59 299 1.0 5.0 0.01 0.03 0.03 92 1012.9
20260506103028 59 324 0.0 2.0 0.01 0.03 0.03 92 1013.0
20260506101522 59 326 0.0 2.0 0.01 0.02 0.02 92 1013.2
20260506100022 58 226 0.0 4.0 0.01 0.02 0.02 93 1013.2
20260506094530 59 298 0.0 5.0 0.02 0.02 0.02 91 1013.3
20260506093029 60 199 0.0 0.0 0.02 0.02 0.02 90 1013.3
20260506091523 60 182 0.0 0.0 0.02 0.02 0.02 89 1013.2
20260506090018 60 182 0.0 0.0 0.02 0.02 0.02 89 1013.2
20260506084517 60 182 0.0 0.0 0.01 0.01 0.01 89 1013.3
20260506083016 60 182 0.0 0.0 0.00 0.00 0.00 87 1013.1
20260506081513 60 115 0.0 1.0 0.00 0.00 0.00 87 1012.9